Вернуться в каталог

THORAD AGENA D DEB

АктивенLEO
NORAD 17658·DEBRIS·🇺🇸 United States

Запущен Sep 30, 1969 с Vandenberg Space Force Base

Loading…

Ближайшие Пролёты (ближайшие 24 часа)

TLE

СвежийSource: Space-Track

Эпоха: Sep 13, 2026, 20:09 UTC

1 17658U 69082KU  26256.83990142  .00000278  00000-0  22757-3 0  9992
2 17658  70.3561 282.3722 0055492 178.9678 355.5348 13.98153222583519

Отслеживайте THORAD AGENA D DEB в реальном времени с AllMySat

Download on the App Store